[[{"header":{"parameterUnit":"m.s-1","parameterCategory":1,"la1":30.2991,"la2":30.254,"lo1":-89.0895,"lo2":-89.0444,"dy":0.0017,"dx":0.0017,"nx":28,"ny":28,"refTime":"2024-07-07T03:00:00:Z","depth":0,"parameterNumber":2,"parameterNumberName":"U-component_of_WINDS"},"data":[0,0,0,0,0,0,0,0,0,0,0,0,0,0,0,0,0,0,0,0,0,0,0,0,0,0,0,0,0,0,0,0,0,0,0,0,0,0,0,0,0,0,0,0,0,0,0,0,0,0,0,0,0,0,0,0,0,0,1.3777,1.3778,0,1.3899,1.3901,1.3902,1.3924,1.3923,1.3922,1.3921,1.4043,1.4047,1.4051,0,0,0,0,0,0,0,0,0,0,0,0,0,1.3558,1.3562,1.3777,1.3779,1.378,1.3899,1.3901,1.3902,1.3924,1.3923,1.3921,1.392,1.4041,1.4046,1.4051,0,0,0,0,0,0,0,0,0,0,0,0,0,1.3664,1.3563,1.3777,1.3805,1.3809,1.3899,1.3901,1.3903,1.3924,1.3922,1.3921,1.392,1.404,1.4046,1.4052,1.4121,0,0,1.4071,1.4074,0,0,0,0,0,0,0,0,1.3658,1.3672,1.3799,1.3803,1.3808,1.3895,1.3868,1.3976,1.3924,1.388,1.3921,1.3919,1.3994,1.4004,1.403,1.4127,1.4132,1.4072,1.4075,1.4078,1.408,0,0,0,0,0,0,0,1.3651,1.3667,1.3825,1.3801,1.3806,1.381,1.3824,1.3889,1.3944,1.3884,1.3886,1.39,1.3996,1.4024,1.4033,1.4134,1.4071,1.4077,1.4081,1.4083,1.4291,1.4293,0,0,0,0,0,0,1.3639,1.3661,1.3821,1.3829,1.3728,1.3816,1.3831,1.3868,1.3944,1.3954,1.3901,1.3901,1.4014,1.4026,1.4038,1.4123,1.4078,1.4084,1.4088,1.4289,1.4292,1.4293,0,0,0,0,0,0,1.3634,1.3653,1.3816,1.3745,1.3767,1.3821,1.3863,1.3871,1.39,1.3957,1.3966,1.392,1.4014,1.4029,1.41,1.4127,1.4087,1.4092,1.4287,1.429,1.4293,1.4293,0,0,0,0,0,0,1.3628,1.3651,1.3679,1.3746,1.377,1.3878,1.3865,1.3875,1.3911,1.3911,1.3977,1.3986,1.4014,1.4091,1.4106,1.4135,1.4097,1.4285,1.4289,1.4292,1.4291,1.4296,1.43,0,0,0,0,0,1.362,1.3674,1.368,1.3699,1.3806,1.3879,1.3893,1.3924,1.3913,1.394,1.3977,1.3984,1.4122,1.4098,1.4116,1.4147,1.4284,1.4288,1.4291,1.4289,1.4295,1.4299,0,0,0,0,0,0,1.3607,1.3683,1.3691,1.3768,1.3817,1.3883,1.3919,1.393,1.3982,1.398,1.4016,1.403,1.4099,1.413,1.4102,1.4217,1.4202,1.4209,1.4194,1.42,1.4204,1.4194,1.4103,0,0,0,0,0,1.3613,1.3668,1.3731,1.3793,1.3817,1.3864,1.3897,1.3917,1.3968,1.3989,1.4031,1.4079,1.4134,1.4169,1.4222,1.4296,1.431,1.4326,1.433,1.4334,1.4339,1.4379,1.4387,1.4306,1.4306,1.4306,0,0,1.3627,1.3675,1.3707,1.3792,1.3832,1.3886,1.3881,1.3938,1.3978,1.3997,1.4067,1.4099,1.4156,1.4229,1.4263,1.4257,1.4365,1.4339,1.4341,1.4345,1.4384,1.4392,1.4399,1.4309,1.4309,1.4308,0,0,1.3679,1.3721,1.3777,1.3818,1.3879,1.391,1.3923,1.3987,1.401,1.4081,1.4096,1.4143,1.4236,1.4276,1.4308,1.4374,1.4382,1.4391,1.4412,1.4451,1.4457,1.4463,1.4485,1.4493,1.4396,1.4396,1.4396,0,1.3687,1.377,1.3804,1.3862,1.3897,1.3918,1.3974,1.4012,1.4087,1.4111,1.4103,1.422,1.426,1.4341,1.4357,1.4383,1.4398,1.4383,1.4454,1.446,1.4466,1.4487,1.4496,1.4397,1.4397,1.4397,1.4397,0,1.3777,1.3834,1.3872,1.3945,1.3986,1.4042,1.4083,1.412,1.4136,1.4167,1.4238,1.4286,1.4349,1.437,1.4387,1.4454,1.4448,1.4447,1.4432,1.4473,1.4494,1.4503,1.4398,1.4397,1.4397,1.4397,0,0,1.3823,1.3915,1.3928,1.3961,1.403,1.4075,1.4131,1.4194,1.4224,1.4275,1.4322,1.44,1.4399,1.4436,1.4457,1.4491,1.4539,1.4486,1.4487,1.4492,1.4614,1.4613,1.4623,1.4545,1.4547,1.4548,1.4609,0,1.3882,1.3985,1.4018,1.4103,1.4155,1.4176,1.4225,1.4272,1.4302,1.435,1.4383,1.4437,1.4433,1.4455,1.449,1.4525,1.4563,1.4522,1.4587,1.4589,1.4571,1.4634,1.4634,1.4689,1.4617,1.4619,1.462,0,1.3965,1.4018,1.4109,1.4171,1.4194,1.4238,1.4297,1.4344,1.4397,1.4416,1.4457,1.4475,1.4533,1.4516,1.4596,1.4567,1.4596,1.4617,1.462,1.4626,1.4606,1.464,1.4707,1.4715,1.4633,1.4632,1.4631,0,1.3988,1.4082,1.4149,1.4177,1.4251,1.4281,1.4313,1.4365,1.44,1.4452,1.4475,1.4532,1.4563,1.4606,1.4639,1.4623,1.4715,1.4701,1.4731,1.473,1.4749,1.4747,1.482,1.4769,1.4769,1.4769,1.4769,0,1.4049,1.4104,1.416,1.4201,1.4262,1.4298,1.4357,1.439,1.4436,1.4482,1.4503,1.4546,1.4587,1.4634,1.466,1.4721,1.4736,1.4752,1.4758,1.4749,1.4747,1.4768,1.4764,1.4771,1.4771,1.477,1.477,0,1.4085,1.4125,1.4199,1.4264,1.4281,1.4323,1.4378,1.4417,1.4448,1.4507,1.4522,1.4571,1.4628,1.4665,1.4738,1.4755,1.4821,1.4827,1.4804,1.4806,1.4834,1.483,1.4922,1.4935,1.4877,1.4877,1.4878,0,1.4121,1.4163,1.4233,1.4266,1.4299,1.4352,1.4388,1.4425,1.4462,1.4525,1.4557,1.4616,1.4665,1.4755,1.4795,1.4851,1.4857,1.4885,1.4865,1.4855,1.4855,1.4852,1.4856,1.4888,1.4888,1.4888,1.4889,0,1.418,1.4198,1.425,1.431,1.4353,1.4401,1.4449,1.4474,1.4519,1.4559,1.4618,1.4656,1.4731,1.4788,1.4847,1.4879,1.489,1.4895,1.4905,1.4896,1.488,1.4888,1.4811,1.4892,1.4892,1.4892,1.4892,1.4891,1.4216,1.4255,1.431,1.4367,1.4407,1.4451,1.4492,1.4528,1.4579,1.4643,1.4662,1.4723,1.4774,1.4855,1.4887,1.4935,1.4931,1.4946,1.4949,1.4952,1.4951,1.4874,1.4946,1.4946,1.4946,1.4946,1.4945,0,1.4275,1.4312,1.4365,1.4431,1.4476,1.4486,1.4539,1.4575,1.4629,1.4677,1.4725,1.4792,1.4848,1.4893,1.495,1.4979,1.4986,1.4993,1.499,1.4997,1.4952,1.4937,1.4986,1.4986,1.4986,1.4986,1.4986,1.4986,1.4311,1.4377,1.4401,1.4486,1.4521,1.4583,1.4612,1.4653,1.4691,1.4766,1.4812,1.4842,1.4888,1.4949,1.5,1.5012,1.5031,1.5036,1.5049,1.5005,1.5001,1.4996,1.4982,1.504,1.5041,1.509,1.5091,1.5091]},{"header":{"parameterUnit":"m.s-1","parameterCategory":1,"la1":30.2991,"la2":30.254,"lo1":-89.0895,"lo2":-89.0444,"dy":0.0017,"dx":0.0017,"nx":28,"ny":28,"refTime":"2024-07-07T03:00:00:Z","depth":0,"parameterNumber":3,"parameterNumberName":"V-component_of_WINDS"},"data":[0,0,0,0,0,0,0,0,0,0,0,0,0,0,0,0,0,0,0,0,0,0,0,0,0,0,0,0,0,0,0,0,0,0,0,0,0,0,0,0,0,0,0,0,0,0,0,0,0,0,0,0,0,0,0,0,0,0,2.3439,2.3439,0,2.3437,2.3437,2.3437,2.3398,2.3397,2.3396,2.3395,2.3392,2.3393,2.3394,0,0,0,0,0,0,0,0,0,0,0,0,0,2.3409,2.3409,2.3439,2.3439,2.3439,2.3437,2.3437,2.3437,2.3398,2.3397,2.3396,2.3395,2.3392,2.3393,2.3394,0,0,0,0,0,0,0,0,0,0,0,0,0,2.3416,2.341,2.3439,2.3419,2.3417,2.3437,2.3437,2.3437,2.3399,2.3397,2.3396,2.3394,2.3392,2.3393,2.3394,2.3431,0,0,2.3398,2.3398,0,0,0,0,0,0,0,0,2.3415,2.3417,2.3422,2.3421,2.3419,2.3416,2.3425,2.3435,2.3399,2.3406,2.3395,2.3394,2.3401,2.3402,2.3404,2.3431,2.3431,2.3398,2.3399,2.3399,2.34,0,0,0,0,0,0,0,2.3415,2.3417,2.3438,2.3422,2.342,2.341,2.341,2.3427,2.3412,2.3405,2.3402,2.3403,2.34,2.3403,2.3404,2.3431,2.3398,2.3399,2.34,2.34,2.3488,2.349,0,0,0,0,0,0,2.3417,2.3416,2.3438,2.3438,2.3413,2.3412,2.3411,2.3418,2.3411,2.3409,2.3404,2.3401,2.3402,2.3403,2.3404,2.3447,2.3399,2.34,2.3401,2.3486,2.3488,2.349,0,0,0,0,0,0,2.3417,2.3419,2.3438,2.3426,2.3428,2.3414,2.3422,2.3419,2.3422,2.3411,2.3408,2.341,2.3401,2.3402,2.3425,2.3446,2.3401,2.3402,2.3485,2.3487,2.3489,2.3533,0,0,0,0,0,0,2.3416,2.3419,2.3433,2.3427,2.3429,2.3459,2.3424,2.342,2.3425,2.3421,2.3416,2.3413,2.34,2.3423,2.3426,2.3447,2.3403,2.3483,2.3486,2.3488,2.3529,2.3536,2.3542,0,0,0,0,0,2.3415,2.3445,2.3434,2.3437,2.3446,2.346,2.3461,2.3445,2.3427,2.344,2.3433,2.3413,2.3444,2.3426,2.3429,2.345,2.3481,2.3485,2.3488,2.3527,2.3535,2.3542,0,0,0,0,0,0,2.3454,2.3444,2.3432,2.3461,2.3462,2.3454,2.3471,2.3455,2.3461,2.3457,2.3437,2.3436,2.3462,2.3458,2.3439,2.3486,2.3459,2.3463,2.3487,2.3495,2.3501,2.3501,2.3404,0,0,0,0,0,2.3466,2.3479,2.347,2.3497,2.3498,2.3484,2.349,2.3478,2.3478,2.3478,2.3472,2.3472,2.3482,2.3488,2.3496,2.3529,2.3527,2.3546,2.3552,2.3558,2.3561,2.3578,2.3586,2.3502,2.3502,2.3502,0,0,2.3491,2.3488,2.3497,2.3504,2.3503,2.3517,2.3485,2.35,2.351,2.348,2.3501,2.3497,2.3496,2.3524,2.3536,2.3522,2.3584,2.3562,2.3566,2.3567,2.3583,2.3591,2.3598,2.3504,2.3504,2.3503,0,0,2.3543,2.3542,2.3564,2.3565,2.3564,2.3555,2.3561,2.3555,2.3552,2.3573,2.355,2.3562,2.3579,2.3579,2.3581,2.3635,2.3617,2.3638,2.3672,2.3689,2.3695,2.3701,2.372,2.3727,2.3642,2.3642,2.3643,0,2.3574,2.3594,2.3578,2.3595,2.3599,2.3573,2.3595,2.3596,2.3598,2.3602,2.3586,2.3607,2.3605,2.3633,2.3646,2.3649,2.3654,2.3638,2.3696,2.3702,2.3707,2.3724,2.3732,2.3645,2.3645,2.3644,2.3644,0,2.3632,2.3646,2.3664,2.3667,2.3673,2.3693,2.3679,2.3688,2.3676,2.3668,2.369,2.3687,2.3694,2.37,2.3688,2.3726,2.3717,2.37,2.3672,2.3718,2.3734,2.3741,2.3649,2.3648,2.3647,2.3646,0,0,2.3707,2.3702,2.3709,2.371,2.3708,2.3719,2.3738,2.3745,2.3752,2.3755,2.377,2.3786,2.3769,2.3772,2.376,2.3775,2.3818,2.3755,2.3755,2.3766,2.386,2.3873,2.3881,2.3806,2.3808,2.3809,2.386,0,2.3756,2.3788,2.3775,2.3808,2.3821,2.3797,2.3814,2.3814,2.3809,2.3819,2.3812,2.3823,2.3801,2.3802,2.3816,2.381,2.3836,2.3806,2.382,2.382,2.382,2.3889,2.3903,2.3951,2.3866,2.3867,2.3868,0,2.3818,2.3824,2.3859,2.3856,2.3861,2.3876,2.3882,2.3892,2.3892,2.3887,2.3891,2.3876,2.3894,2.3867,2.3892,2.3872,2.3877,2.3875,2.3876,2.3876,2.3846,2.3891,2.3966,2.3973,2.3878,2.3877,2.3876,0,2.3869,2.3886,2.3909,2.3911,2.3908,2.3919,2.3918,2.3917,2.3923,2.3928,2.3932,2.3939,2.3943,2.3949,2.3937,2.3918,2.3963,2.3935,2.3959,2.3959,2.3968,2.3968,2.4045,2.3973,2.3973,2.3973,2.3973,0,2.3925,2.3947,2.3932,2.3946,2.397,2.3954,2.3978,2.3975,2.3975,2.3988,2.3968,2.3981,2.3964,2.3974,2.3965,2.3987,2.3989,2.3985,2.3982,2.3986,2.3987,2.3988,2.3985,2.3975,2.3974,2.3974,2.3974,0,2.3985,2.3976,2.3999,2.3995,2.3994,2.4012,2.4008,2.4021,2.4015,2.4031,2.4034,2.4024,2.4036,2.4024,2.4035,2.4029,2.4058,2.405,2.4058,2.4056,2.408,2.4078,2.416,2.4171,2.4093,2.4093,2.4094,0,2.4021,2.4038,2.4036,2.4043,2.4044,2.4056,2.4062,2.4048,2.4055,2.4058,2.4071,2.4081,2.4088,2.4109,2.4102,2.411,2.4103,2.4131,2.4103,2.4108,2.4102,2.4101,2.4103,2.4136,2.4137,2.4138,2.4139,0,2.4086,2.4081,2.4091,2.4099,2.4107,2.4113,2.4117,2.4125,2.411,2.4119,2.4132,2.4138,2.4149,2.416,2.4167,2.4165,2.415,2.4148,2.4153,2.4158,2.4161,2.4159,2.4073,2.4145,2.4145,2.4144,2.4144,2.4144,2.4135,2.4149,2.415,2.4161,2.4163,2.4168,2.418,2.4176,2.4186,2.4195,2.4186,2.4201,2.4202,2.421,2.4211,2.4222,2.421,2.4219,2.4221,2.4223,2.4226,2.416,2.4223,2.4223,2.4223,2.4223,2.4223,0,2.4198,2.4198,2.4209,2.4217,2.4226,2.4212,2.4216,2.4224,2.4238,2.4241,2.4249,2.4264,2.4274,2.4269,2.4278,2.4288,2.4282,2.4291,2.429,2.429,2.4237,2.4231,2.4297,2.4297,2.4297,2.4297,2.4297,2.4297,2.4232,2.4255,2.4251,2.4274,2.4274,2.4289,2.4293,2.4297,2.4299,2.4317,2.4326,2.4323,2.4322,2.4331,2.4341,2.4339,2.4343,2.4355,2.4351,2.4301,2.4294,2.4287,2.4281,2.4356,2.4356,2.4403,2.4404,2.4404]}]]